Regional Weather Roundup
Issued by NWS

Home | Current Version | Previous Version | Text Only | Print | Product List | Glossary On
Versions: 1 2 3 4 5 6 7 8 9 10 11 12 13 14 15 16 17 18 19 20 21 22 23 24 25 26 27 28 29 30 31 32 33 34 35 36 37 38 39 40 41 42 43 44 45 46 47 48 49 50
684
ASUS42 KTBW 280216
RWRFL
FLORIDA REGIONAL WEATHER ROUNDUP
NATIONAL WEATHER SERVICE TAMPA BAY RUSKIN FL
1000 PM EDT SAT AUG 27 2016

NOTE: "FAIR" INDICATES FEW OR NO CLOUDS BELOW 12,000 FEET WITH NO
SIGNIFICANT WEATHER AND/OR OBSTRUCTIONS TO VISIBILITY.

FLZ001>010-012>015-112-114-115-280300-
PANHANDLE FLORIDA

CITY           SKY/WX    TMP DP  RH WIND       PRES   REMARKS
PENSACOLA      CLOUDY    81  75  82 CALM      30.00R
PENSACOLA NAS  MOCLDY    80  75  84 CALM      29.99R
MILTON NAS     CLOUDY    77  77 100 E3        30.00
CRESTVIEW      CLOUDY    78  74  87 CALM      30.02R
DUKE FIELD     FAIR      78  74  89 CALM      29.99R
VALPARAISO     MOCLDY    81  76  84 N2        29.99R
MARY ESTHER    MOCLDY    79  76  91 N6        29.98R
PANAMA CITY    FAIR      79  76  90 CALM      29.98R
TYNDALL AFB    PTCLDY    80  75  85 N5        29.98S
APALACHICOLA   PTCLDY    79  76  90 NE3       29.96R

STATION/POSITION SKY/WX   TEMP    WIND        PRES    WAVE   SWELL
                          AIR SEA DIR/SP/G            HT/PER HT/PER
                          (F)     (DEG/KT/KT) (MB)    (FT/S) (FT/S)
30.1N   87.6W              83 85  110/  8/ 10 1015.5R   2/ 5   2/ 5
29.2N   88.2W              84 86  100/ 17/ 21 1013.6R
28.8N   86.0W              84 85   90/ 12/ 16 1014.7R   3/ 6
PANAMA CITY BEAC           84 87              1015.4R
TOWER C                    85      50/  6/  6 1015.6R
28.5N   84.5W              83 85  150/ 12/ 16 1014.9R   2/ 4

$$
FLZ011-016>038-118-127-128-134-139-239-280300-
NORTH FLORIDA

CITY           SKY/WX    TMP DP  RH WIND       PRES   REMARKS
MARIANNA       LGT RAIN  77  75  93 NE5       30.00R
TALLAHASSEE    CLOUDY    80  77  90 NW3       29.99R
PERRY          CLOUDY    83  73  72 E3        30.00R
CROSS CITY     CLOUDY    81  75  83 NE5       29.99R
LAKE CITY      MOCLDY    79  77  94 NE5       30.02R
GAINESVILLE    CLOUDY    79  74  84 NE6       30.00R
MAYPORT NAS    CLOUDY    82  77  84 E12       30.02R
JACKSONVILLE   MOCLDY    80  77  90 E5        30.02R
JAX NAS        LGT RAIN  80  75  84 NE6       30.03R
FERNANDINA BEA FAIR      86  79  79 E9        30.02R HX  99
ST AUGUSTINE   PTCLDY    83  78  85 E8        30.02R
PALM COAST     FAIR      80  78  92 E5        30.00R

STATION/POSITION SKY/WX   TEMP    WIND        PRES    WAVE   SWELL
                          AIR SEA DIR/SP/G            HT/PER HT/PER
                          (F)     (DEG/KT/KT) (MB)    (FT/S) (FT/S)
SHELL POINT                       330/  4/  5 1013.6
KEATON BEACH               82      70/  5/  6 1015.1R
CEDAR KEY                  84     200/ 11/ 13 1015.5R
FERNANDINA                 84 86              1016.1R
30.7N   81.3W                 85                N/A     4/11   2/11
MAYPORT                    83 85              1016.4R
31.4N   80.9W              84 85   90/ 14/ 16 1017.2R   4/10   2/10
ST AUGUSTINE               83 84  100/ 10/ 11 1017.1R

$$
FLZ040-043>046-052-053-057-058-063-144-280300-
INTERIOR CENTRAL FLORIDA

CITY           SKY/WX    TMP DP  RH WIND       PRES   REMARKS
OCALA          PTCLDY    81  72  74 CALM      29.99R
THE VILLAGES     N/A     82  77  83 CALM      29.90R
LEESBURG       CLEAR     82  74  76 E5        29.99R
SANFORD        CLEAR     81  76  84 E5        29.98R
ORLANDO EXEC   CLEAR     80  77  90 NE5       29.98R
ORLANDO INTL   PTCLDY    81  76  84 E6        29.98R
KISSIMMEE      CLEAR     81  77  88 E3        29.98S
WINTER HAVEN   CLEAR     78  75  90 CALM      29.98R
LAKELAND       PTCLDY    75  75 100 CALM      29.98R
BARTOW         FAIR      75 N/A N/A CALM      29.98R
OKEECHOBEE     PTCLDY    73  73 100 N3        29.95S

$$
FLZ041-047-054-059-064-141-147-280300-
EAST CENTRAL FLORIDA

CITY           SKY/WX    TMP DP  RH WIND       PRES   REMARKS
DAYTONA BEACH  PTCLDY    83  78  85 E5        29.99R
DELAND         CLEAR     81  77  89 N3        29.99R
JFK SPACE CTR  CLEAR     81  76  86 E6        29.97R
CAPE CANAVERAL CLEAR     80  76  89 E5        29.96R
PATRICK AFB    CLEAR     83  78  86 E7        29.96S
MELBOURNE      CLEAR     83  79  88 E7        29.96S
VERO BEACH     CLEAR     82  76  81 E5        29.95S
FT PIERCE      CLEAR     82  77  84 E5        29.95S

STATION/POSITION SKY/WX   TEMP    WIND        PRES    WAVE   SWELL
                          AIR SEA DIR/SP/G            HT/PER HT/PER
                          (F)     (DEG/KT/KT) (MB)    (FT/S) (FT/S)
28.5N   80.2W              83 82  100/  2/  4 1015.1R
TRIDENT PIER               82 85              1015.0R
28.4N   80.5W                 84                N/A     3/ 9
27.5N   80.2W                 84                N/A     3/ 9

$$
FLZ050-056-061-142-242-148-248-149-249-151-251-155-255-
160-260-280300-
WEST CENTRAL FLORIDA

CITY           SKY/WX    TMP DP  RH WIND       PRES   REMARKS
CRYSTAL RIVER  FAIR      79  72  78 CALM      29.98R
INVERNESS      FAIR      79  73  83 CALM      29.99R
BROOKSVILLE    CLEAR     76  73  91 CALM      29.98S
CLEARWATER AIR FAIR      79  73  83 E3        29.95S
ST PETE CLEARW PTCLDY    81  76  84 E7        29.95S
TAMPA INTL     PTCLDY    80  75  84 NE6       29.96S
TAMPA EXEC     CLEAR     77  73  88 CALM      29.97R
PLANT CITY     CLEAR     77  77 100 CALM      29.99R
MACDILL AFB    PTCLDY    78  78 100 E10       29.95S
PETER O KNIGHT CLEAR     81  77  89 NE7       29.96R
ST PETERSBURG  PTCLDY    82  76  81 E13       29.94R
SARASOTA       CLOUDY    79  75  87 E8        29.93R
VENICE         FAIR      79  77  94 E10       29.94R

STATION/POSITION SKY/WX   TEMP    WIND        PRES    WAVE   SWELL
                          AIR SEA DIR/SP/G            HT/PER HT/PER
                          (F)     (DEG/KT/KT) (MB)    (FT/S) (FT/S)
27.3N   84.2W                 87                N/A     4/ 5
CLEARWATER BEACH           81 87              1014.4S
MIDDLE TAMPA BAY                              1014.3F
VENICE                     79 83   70/  6/  8 1013.6R

$$
FLZ066-069-070-075>078-162-262-165-265-280300-
SOUTHWEST FLORIDA AND KEYS

CITY           SKY/WX    TMP DP  RH WIND       PRES   REMARKS
PUNTA GORDA    CLOUDY    78  77  96 E7        29.95R
FT MYERS       CLOUDY    79  76  90 NE8       29.91F
SOUTHWEST INTL PTCLDY    79  73  82 NE8       29.92F
NAPLES         CLOUDY    80  77  90 NE6       29.90F
MARATHON       PTCLDY    85  77  77 NE10      29.87R HX  95
KEY WEST INTL  PTCLDY    81  79  94 NE8       29.89R

STATION/POSITION SKY/WX   TEMP    WIND        PRES    WAVE   SWELL
                          AIR SEA DIR/SP/G            HT/PER HT/PER
                          (F)     (DEG/KT/KT) (MB)    (FT/S) (FT/S)
NAPLES                        87              1012.9R
26.0N   85.6W              83 85   60/ 10/ 12 1013.6R   2/ 4   2/ 7
DRY TORTUGAS               84      60/ 10/ 11 1012.5R
SAND KEY                   85      60/ 12/ 14 1012.5R
LONG KEY                   85 87   50/ 14/ 15 1012.0R

$$
FLZ067-068-071>074-168-172>174-280300-
SOUTHEAST FLORIDA

CITY           SKY/WX    TMP DP  RH WIND       PRES   REMARKS
W PALM BEACH   MOCLDY    84  74  71 E10       29.93S
BOCA RATON     PTCLDY    81  77  89 NE10      29.92R
FT LAUDER-EXEC PTCLDY    81  77  88 NE8       29.91R
FT LAUDERDALE  MOCLDY    84  77  79 E10       29.90R
POMPANO BEACH  CLOUDY    83  78  85 NE12      29.91S
OPA LOCKA      CLOUDY    84  75  74 NE10      29.91R
MIAMI          CLOUDY    85  77  77 NE13      29.90R HX  95
WEST KENDALL   CLOUDY    84  77  79 NE7       29.90R
HOMESTEAD      CLOUDY    84  76  77 NE9       29.89R

STATION/POSITION SKY/WX   TEMP    WIND        PRES    WAVE   SWELL
                          AIR SEA DIR/SP/G            HT/PER HT/PER
                          (F)     (DEG/KT/KT) (MB)    (FT/S) (FT/S)
PORT EVERGLADES            85      60/ 10/ 16 1012.5S
VIRGINIA KEY               85 89              1012.4R
LAKE WORTH                 82 87              1012.9S
FOWEY ROCKS                85 86   70/ 15/ 17 1013.0R
SETTLEMENT POINT           85     110/ 15/ 18 1014.2R

$$





USA.gov is the U.S. government's official web portal to all federal, state and local government web resources and services.